(266281) = 2003 AZ45 = 2007 BK6

Discovered at Palomar on 2007-01-17 by NEAT.

Orbit

Orbit type: Main Belt

Note: WebGL enabled browser required.

epoch2024-03-31.0
epoch JD2460400.5
perihelion date2022-11-21.37218
perihelion JD2459904.87218
argument of perihelion (°)73.71982
ascending node (°)78.29269
inclination (°)7.98745
eccentricity0.0761815
perihelion distance (AU)2.2826922
Tisserand w.r.t. Jupiter3.5
ΔV w.r.t. Earth (km/sec)9.7
semimajor axis (AU)2.4709316
mean anomaly (°)125.76750
mean daily motion (°/day)0.25375390
aphelion distance (AU)2.659
period (years)3.88
P-vector [x]-0.87393130
P-vector [y]0.37576395
P-vector [z]0.30829457
Q-vector [x]-0.46661575
Q-vector [y]-0.82618400
Q-vector [z]-0.31573681
absolute magnitude16.57
phase slope0.15
uncertainty0
referenceMPEC 2024-C181
observations used537
oppositions13
arc length (days)8452
first opposition used2000
last opposition used2023
residual rms (arc-secs)0.75
perturbers coarse indicatorM-v
perturbers precise indicator003Ek
first observation date used2000-05-03.0
last observation date used2023-06-24.0
computer nameMPCLINUX
JD of orbit computation2456612.717769
perihelion JD uncertainty (days)2.3381E-04
argument of perihelion uncertainty (°)8.7020E-05
ascending node uncertainty (°)6.6345E-05
inclination uncertainty (°)7.3651E-06
eccentricity uncertainty 1.4609E-07
perihelion distance uncertainty (AU)3.8271E-07
Minimum Orbit Intersection Distances (in AU)
for orbit epoch: 2460400.5, reference: E2024-CI1
Mercury1.90763
Venus1.56702
Earth1.30953
Mars0.64833
Jupiter2.35894
Saturn6.63257
Uranus16.1719
Neptune27.2519

Observations

583 total observations over interval: 2000 05 03.34907 – 2023 06 24.175472
These data are available for download (format description).

Date (UT) J2000 RA J2000 Dec Magn Location Ref
2000 05 03.34907 15 44 11.82 -13 23 04.3 19.8 V 691 – Steward Observatory, Kitt Peak-Spacewatch MPS 198221
2000 05 03.37150 15 44 10.51 -13 23 03.6 19.8 V 691 – Steward Observatory, Kitt Peak-Spacewatch MPS 198221
2000 05 03.39750 15 44 08.99 -13 23 02.7 20.1 V 691 – Steward Observatory, Kitt Peak-Spacewatch MPS 198221
2003 01 05.30157 07 06 19.08 +28 41 05.6 19.5   704 – Lincoln Laboratory ETS, New Mexico MPS 71787
2003 01 05.31728 07 06 18.02 +28 41 10.9 19.9   704 – Lincoln Laboratory ETS, New Mexico MPS 71787
2003 01 05.33286 07 06 16.89 +28 41 14.9 20.1   704 – Lincoln Laboratory ETS, New Mexico MPS 71787
2003 01 09.19609 07 01 56.08 +29 01 26.5 18.9   704 – Lincoln Laboratory ETS, New Mexico MPS 71787
2003 01 09.22694 07 01 53.87 +29 01 36.4 19.1   704 – Lincoln Laboratory ETS, New Mexico MPS 71787
2003 01 09.24242 07 01 52.79 +29 01 40.5 18.9   704 – Lincoln Laboratory ETS, New Mexico MPS 71787
2005 08 26.44731 00 31 02.74 -10 00 20.0 20.3   644 – Palomar Mountain/NEAT MPS 198221
2005 08 26.46386 00 31 02.19 -10 00 26.1 20.8   644 – Palomar Mountain/NEAT MPS 198221
2005 08 26.47649 00 31 01.77 -10 00 30.9 20.2   644 – Palomar Mountain/NEAT MPS 198221
2006 10 03.48388 07 45 59.72 +22 50 07.2 21.8 V G96 – Mt. Lemmon Survey MPS 197161
2006 10 03.48780 07 46 00.08 +22 50 07.1 21.4 V G96 – Mt. Lemmon Survey MPS 197161
2006 10 03.49174 07 46 00.40 +22 50 06.9 21.6 V G96 – Mt. Lemmon Survey MPS 197161
2006 10 03.49565 07 46 00.76 +22 50 06.6 21.8 V G96 – Mt. Lemmon Survey MPS 197161
2006 10 31.44017 08 22 55.45 +22 32 23.5 20.9 V G96 – Mt. Lemmon Survey MPS 197161
2006 10 31.44638 08 22 55.84 +22 32 23.7 21.5 V G96 – Mt. Lemmon Survey MPS 197161
2006 10 31.45248 08 22 56.28 +22 32 23.6 21.7 V G96 – Mt. Lemmon Survey MPS 197161
2006 10 31.45866 08 22 56.67 +22 32 23.5 21.4 V G96 – Mt. Lemmon Survey MPS 197161
2007 01 10.33730 08 34 02.38 +27 44 34.3 19.0   704 – Lincoln Laboratory ETS, New Mexico MPS 197161
2007 01 10.35472 08 34 01.38 +27 44 41.8 19.0   704 – Lincoln Laboratory ETS, New Mexico MPS 197161
2007 01 10.36998 08 34 00.46 +27 44 49.3 19.4   704 – Lincoln Laboratory ETS, New Mexico MPS 197161
2007 01 10.38468 08 33 59.67 +27 44 55.9 19.8   704 – Lincoln Laboratory ETS, New Mexico MPS 197161
2007 01 10.40069 08 33 58.82 +27 45 03.4 19.1   704 – Lincoln Laboratory ETS, New Mexico MPS 197161
2007 01 17.27112 08 27 17.60 +28 36 30.3 18.9 V 703 – Catalina Sky Survey MPS 197161
2007 01 17.27809 08 27 17.10 +28 36 34.0 18.9 V 703 – Catalina Sky Survey MPS 197161
2007 01 17.28502 08 27 16.66 +28 36 36.4 18.9 V 703 – Catalina Sky Survey MPS 197161
2007 01 17.29198 08 27 16.23 +28 36 39.7 19.1 V 703 – Catalina Sky Survey MPS 197161
2007 01 17.34859 08 27 12.64 +28 37 04.4 19.5 R 644 – Palomar Mountain/NEAT MPS 197161
2007 01 17.36910 08 27 11.31 +28 37 13.1 19.2 R 644 – Palomar Mountain/NEAT MPS 197161
2007 01 17.38962 08 27 10.00 +28 37 21.8 18.9 R 644 – Palomar Mountain/NEAT MPS 197161
2007 01 18.44822 08 26 04.09 +28 44 54.2 20.1 R 644 – Palomar Mountain/NEAT MPS 197161
2007 01 18.46976 08 26 02.72 +28 45 03.1 19.8 R 644 – Palomar Mountain/NEAT MPS 197161
2007 01 18.49134 08 26 01.33 +28 45 12.3 20.3 R 644 – Palomar Mountain/NEAT MPS 197161
2007 01 23.26573 08 20 58.33 +29 17 25.7 19.5   704 – Lincoln Laboratory ETS, New Mexico MPS 197161
2007 01 23.27796 08 20 57.43 +29 17 31.1 19.7   704 – Lincoln Laboratory ETS, New Mexico MPS 197161
2007 01 23.30237 08 20 55.78 +29 17 41.0 19.5   704 – Lincoln Laboratory ETS, New Mexico MPS 197161
2007 01 23.31459 08 20 55.15 +29 17 45.6 19.8   704 – Lincoln Laboratory ETS, New Mexico MPS 197161
2007 01 28.24868 08 15 38.70 +29 47 16.0 19.6 V 703 – Catalina Sky Survey MPS 198221
2007 01 28.25420 08 15 38.34 +29 47 18.0 18.9 V 703 – Catalina Sky Survey MPS 198221
2007 01 28.25976 08 15 38.01 +29 47 19.8 19.0 V 703 – Catalina Sky Survey MPS 198221
2007 01 28.26530 08 15 37.62 +29 47 21.2 19.2 V 703 – Catalina Sky Survey MPS 198221
2007 02 18.11839 07 57 07.23 +30 59 05.1 20.2 V 703 – Catalina Sky Survey MPS 200442
2007 02 18.12377 07 57 06.98 +30 59 05.8 19.8 V 703 – Catalina Sky Survey MPS 200442
2007 02 18.14092 07 57 06.30 +30 59 07.6 20.0 V 703 – Catalina Sky Survey MPS 200442
2007 02 18.14623 07 57 06.12 +30 59 07.4 19.6 V 703 – Catalina Sky Survey MPS 200442
2009 09 27.29933 01 00 28.94 -06 40 30.9 19.9 V 703 – Catalina Sky Survey MPS 296974
2009 09 27.30678 01 00 28.51 -06 40 33.8 19.8 V 703 – Catalina Sky Survey MPS 296974
2009 09 27.31407 01 00 28.04 -06 40 36.2 20.1 V 703 – Catalina Sky Survey MPS 296974
2009 09 27.32134 01 00 27.72 -06 40 38.8 19.3 V 703 – Catalina Sky Survey MPS 296974
2009 10 15.33566 00 43 52.95 -07 56 04.0 19.8 V 291 – LPL/Spacewatch II MPS 298353
2009 10 15.34751 00 43 52.30 -07 56 06.0 19.9 V 291 – LPL/Spacewatch II MPS 298353
2009 10 15.35931 00 43 51.64 -07 56 08.0 20.0 V 291 – LPL/Spacewatch II MPS 298353
2009 10 16.23325 00 43 05.26 -07 58 32.6 20.2 V 703 – Catalina Sky Survey MPS 299432
2009 10 16.24133 00 43 04.94 -07 58 32.7 20.2 V 703 – Catalina Sky Survey MPS 299432
2009 10 16.24940 00 43 04.47 -07 58 34.0 20.4 V 703 – Catalina Sky Survey MPS 299432
2009 10 16.25753 00 43 03.97 -07 58 33.8 19.8 V 703 – Catalina Sky Survey MPS 299432
2010 11 10.43326 09 25 16.77 +20 20 56.4 20.7 V 691 – Steward Observatory, Kitt Peak-Spacewatch MPS 355459
2010 11 10.45193 09 25 18.21 +20 20 54.4 21.1 V 691 – Steward Observatory, Kitt Peak-Spacewatch MPS 355459
2010 11 10.47061 09 25 19.50 +20 20 52.0 21.1 V 691 – Steward Observatory, Kitt Peak-Spacewatch MPS 355459
2011 01 02.38906 09 59 29.79 +22 15 43.3 20.3 V 703 – Catalina Sky Survey MPS 363377
2011 01 02.39651 09 59 29.76 +22 15 45.5 20.0 V 703 – Catalina Sky Survey MPS 363377
2011 01 02.40405 09 59 29.61 +22 15 47.8 20.3 V 703 – Catalina Sky Survey MPS 363377
2011 01 02.41165 09 59 29.58 +22 15 51.4 19.4 V 703 – Catalina Sky Survey MPS 363377
2011 02 06.31718 09 37 51.99 +26 50 45.4 19.4 V 703 – Catalina Sky Survey MPS 369557
2011 02 06.32182 09 37 51.74 +26 50 46.5 19.2 V 703 – Catalina Sky Survey MPS 369557
2011 02 06.32649 09 37 51.45 +26 50 49.7 19.5 V 703 – Catalina Sky Survey MPS 369557
2011 02 06.33108 09 37 51.20 +26 50 51.1 19.6 V 703 – Catalina Sky Survey MPS 369557
2011 02 06.33568 09 37 50.95 +26 50 53.3 19.9 V 703 – Catalina Sky Survey MPS 369557
2011 02 08.28114 09 35 54.83 +27 04 35.9 19.2   704 – Lincoln Laboratory ETS, New Mexico MPS 369557
2011 02 08.29418 09 35 54.10 +27 04 41.1 19.6   704 – Lincoln Laboratory ETS, New Mexico MPS 369557
2011 02 08.30675 09 35 53.23 +27 04 46.2 19.8   704 – Lincoln Laboratory ETS, New Mexico MPS 369557
2011 02 08.31946 09 35 52.43 +27 04 51.4 19.8   704 – Lincoln Laboratory ETS, New Mexico MPS 369557
2011 02 12.16614 09 32 00.93 +27 29 51.9 19.1   704 – Lincoln Laboratory ETS, New Mexico MPS 369557
2011 02 12.17905 09 32 00.16 +27 29 55.5 18.9   704 – Lincoln Laboratory ETS, New Mexico MPS 369557
2011 02 12.19198 09 31 59.37 +27 30 01.0 19.0   704 – Lincoln Laboratory ETS, New Mexico MPS 369557
2011 02 12.20479 09 31 58.55 +27 30 05.7 19.0   704 – Lincoln Laboratory ETS, New Mexico MPS 369557
2011 02 12.21763 09 31 57.74 +27 30 10.3 19.1   704 – Lincoln Laboratory ETS, New Mexico MPS 369557
2011 02 24.17233 09 20 32.89 +28 26 43.6 20.1 V 703 – Catalina Sky Survey MPS 371919
2011 02 24.17742 09 20 32.60 +28 26 45.8 20.4 V 703 – Catalina Sky Survey MPS 371919
2011 02 24.18328 09 20 32.42 +28 26 48.4 19.9 V 703 – Catalina Sky Survey MPS 371919
2011 02 24.18839 09 20 32.13 +28 26 49.3 19.4 V 703 – Catalina Sky Survey MPS 371919
2011 03 02.19531 09 15 41.36 +28 41 53.5 19.2 V 703 – Catalina Sky Survey MPS 373341
2011 03 02.20361 09 15 40.96 +28 41 54.4 19.3 V 703 – Catalina Sky Survey MPS 373341
2011 03 02.21189 09 15 40.60 +28 41 54.8 19.3 V 703 – Catalina Sky Survey MPS 373341
2011 03 02.22016 09 15 40.24 +28 41 56.9 19.4 V 703 – Catalina Sky Survey MPS 373341
2011 05 29.26430 10 00 29.330 +20 44 01.95 21.8 w F51 – Pan-STARRS 1, Haleakala MPS 384611
2011 05 29.26906 10 00 29.706 +20 43 59.04 21.8 w F51 – Pan-STARRS 1, Haleakala MPS 384611
2011 05 29.27388 10 00 30.083 +20 43 56.10 21.8 w F51 – Pan-STARRS 1, Haleakala MPS 384611
